Location: Chandolas
(44.4033°N, 4.2533°E)
Time: 12:38:02
(UTC+00:00)

Cosmos 2322 Rocket - Pass Details

Date: 15 November 2019
Orbit: 832 x 851 km, 71.0° (Epoch: 10 December)

Event Time Altitude Azimuth Distance (km) Brightness Sun altitude
Exits shadow 05:29:17 - 333° (NNW) 3,104 4.8 -12.5°
Reaches altitude 10° 05:30:57 10° 333° (NNW) 2,468 4.2 -12.2°
Maximum altitude 05:36:38 82° 247° (WSW) 859 2.2 -11.2°
Drops below altitude 10° 05:42:18 10° 160° (SSE) 2,464 5.1 -10.2°
Sets 05:44:44 0° 160° (SSE) 3,397 5.9 -9.8°
